TimeEST,TemperatureF,Dew PointF,Humidity,Sea Level PressureIn,VisibilityMPH,Wind Direction,Wind SpeedMPH,Gust SpeedMPH,PrecipitationIn,Events,Conditions,WindDirDegrees,DateUTC
12:07 AM,35.6,30.2,81,30.11,1.0,Calm,Calm,-,N/A,,Overcast,0,2013-01-30 05:07:00
12:17 AM,35.6,32.0,87,30.10,0.8,Calm,Calm,-,N/A,,Overcast,0,2013-01-30 05:17:00
1:53 AM,36.0,30.9,82,30.06,0.5,Calm,Calm,-,N/A,,Haze,0,2013-01-30 06:53:00
2:53 AM,35.1,30.0,82,30.03,0.2,NE,5.8,-,N/A,,Haze,40,2013-01-30 07:53:00
3:53 AM,36.0,30.9,82,30.00,0.2,East,4.6,-,N/A,,Haze,80,2013-01-30 08:53:00
4:53 AM,36.0,30.9,82,29.96,0.2,Calm,Calm,-,N/A,,Haze,0,2013-01-30 09:53:00
5:53 AM,36.0,30.9,82,29.96,0.2,Calm,Calm,-,N/A,,Haze,0,2013-01-30 10:53:00
6:53 AM,37.9,32.0,79,29.92,0.2,Calm,Calm,-,N/A,,Haze,0,2013-01-30 11:53:00
7:53 AM,39.0,32.0,76,29.90,0.2,North,3.5,-,N/A,,Haze,350,2013-01-30 12:53:00
8:53 AM,45.0,45.0,100,29.87,0.2,SE,4.6,-,N/A,Fog,Fog,130,2013-01-30 13:53:00
9:53 AM,45.0,45.0,100,29.86,0.2,SE,5.8,-,N/A,Fog,Fog,140,2013-01-30 14:53:00
10:44 AM,48.2,48.2,100,29.81,1.2,Variable,4.6,-,N/A,,Overcast,0,2013-01-30 15:44:00
10:53 AM,48.9,48.9,100,29.80,2.0,SSE,6.9,-,N/A,,Overcast,150,2013-01-30 15:53:00
11:13 AM,50.0,50.0,100,29.77,2.0,South,9.2,-,N/A,,Overcast,180,2013-01-30 16:13:00
11:53 AM,51.1,51.1,100,29.76,4.0,South,6.9,-,N/A,,Overcast,190,2013-01-30 16:53:00
12:24 PM,51.8,51.8,100,29.73,2.5,South,11.5,-,N/A,,Overcast,170,2013-01-30 17:24:00
12:41 PM,53.6,51.8,94,29.71,3.0,South,10.4,-,N/A,,Overcast,180,2013-01-30 17:41:00
12:53 PM,53.1,52.0,96,29.72,4.0,South,9.2,-,N/A,,Overcast,170,2013-01-30 17:53:00
1:53 PM,54.0,52.0,93,29.68,4.0,SSE,9.2,17.3,N/A,,Overcast,160,2013-01-30 18:53:00
2:16 PM,53.6,51.8,94,29.66,4.0,South,12.7,19.6,N/A,,Overcast,170,2013-01-30 19:16:00
2:42 PM,53.6,51.8,94,29.64,4.0,SSE,10.4,18.4,N/A,,Overcast,160,2013-01-30 19:42:00
2:53 PM,54.0,52.0,93,29.64,4.0,SSE,8.1,-,N/A,,Overcast,160,2013-01-30 19:53:00
3:04 PM,53.6,51.8,94,29.63,4.0,SSE,11.5,-,N/A,,Overcast,160,2013-01-30 20:04:00
3:20 PM,53.6,51.8,94,29.64,4.0,South,11.5,19.6,N/A,,Overcast,170,2013-01-30 20:20:00
3:53 PM,54.0,52.0,93,29.64,5.0,South,11.5,21.9,N/A,,Overcast,170,2013-01-30 20:53:00
4:53 PM,54.0,52.0,93,29.61,5.0,SSE,13.8,20.7,N/A,,Overcast,160,2013-01-30 21:53:00
5:53 PM,54.0,52.0,93,29.60,5.0,South,13.8,23.0,N/A,,Overcast,170,2013-01-30 22:53:00
7:53 PM,53.1,51.1,93,29.58,8.0,Variable,4.6,-,N/A,,Overcast,0,2013-01-31 00:53:00
8:53 PM,52.0,51.1,97,29.55,3.0,SE,5.8,-,0.02,Rain,Light Rain,140,2013-01-31 01:53:00
9:31 PM,51.8,50.0,94,29.53,2.0,SSE,8.1,-,0.01,Rain,Light Rain,150,2013-01-31 02:31:00
9:53 PM,51.1,50.0,96,29.51,2.0,SSE,8.1,-,0.02,,Overcast,150,2013-01-31 02:53:00
10:01 PM,50.0,50.0,100,29.50,1.0,SE,6.9,-,N/A,,Overcast,140,2013-01-31 03:01:00
10:19 PM,50.0,50.0,100,29.48,0.8,SSE,8.1,-,N/A,,Overcast,150,2013-01-31 03:19:00
10:36 PM,51.8,51.8,100,29.47,1.2,SSE,9.2,-,N/A,,Overcast,150,2013-01-31 03:36:00
10:53 PM,52.0,52.0,100,29.44,1.8,South,10.4,18.4,N/A,,Overcast,170,2013-01-31 03:53:00
11:03 PM,53.6,53.6,100,29.43,2.5,South,13.8,24.2,N/A,,Overcast,170,2013-01-31 04:03:00
11:12 PM,53.6,53.6,100,29.43,4.0,SSW,15.0,25.3,N/A,,Overcast,200,2013-01-31 04:12:00
11:26 PM,55.4,53.6,94,29.41,7.0,South,12.7,23.0,N/A,,Overcast,190,2013-01-31 04:26:00
11:48 PM,55.4,55.4,100,29.39,8.0,South,15.0,25.3,0.00,Rain,Light Rain,180,2013-01-31 04:48:00
11:53 PM,57.0,55.0,93,29.39,9.0,South,17.3,29.9,0.00,Rain,Light Rain,190,2013-01-31 04:53:00